Weather in Zubova Poliana

Russia / Republic of Mordovia     54°04′36″N   42°49′47″E
temp.,
°C
wind,
m/s
gust,
m/s
humid.,
%
clouds,
%
prec.,
mm/h
press.,
hPa
HPBL,
m
17 october, sun
sun1700:00+9ssw51159100 0.0 1017996
03:00+9sw4106276 0.0 1016524
06:00+5sw377976 0.0 1017175
09:00+8ssw367396 0.0 1017250
12:00+12sw475998 0.0 10161020
15:00+12wsw465881 0.0 10151325
18:00+8wsw237476 0.0 101549
21:00+6wsw25816 0.0 101592
18 october, mon
mon1800:00+5wsw258519 0.0 101589
03:00+4sw239178 0.0 101457
06:00+3sw2595100 0.0 1013103
09:00+6sw3880100 0.0 1013359
12:00+10wsw5855100 0.0 10111286
15:00+10wsw595396 0.0 10101575
18:00+8wsw4969100 0.1 1011776
21:00+7w387797 0.3 1011684
19 october, tue
tue1900:00+5nw2676100 0.2 1012627
03:00+3wnw2386100 0.2 101276
06:00+3w2383100 0.0 1013113
09:00+5w2476100 0.0 1013396
12:00+7wnw3458100 0.0 10131104
15:00+6nw3458100 0.1 10131081
18:00+3nw4790100 0.3 1015525
21:00+2wnw258594 0.4 1015210
20 october, wed
wed2000:00+1nnw379157 0.1 1016486
03:00+1nw4786100 0.1 1017618
06:00+1nnw3796100 0.1 1018472
09:00+2nw477035 0.3 1020873
12:00+4nw4660100 0.1 10211323
15:00+4nw456190 0.4 10211139
18:00+1nw268688 0.1 1023360
21:00−1w22895 0.1 102445
21 october, thu
thu2100:00−2wsw22775 0.0 102445
03:00−2ssw267268 0.0 1023131
06:00−2ssw31075100 0.0 1022270
09:00+1ssw5126693 0.0 1021473
12:00+6ssw6125097 0.0 1018710
15:00+6ssw61450100 0.0 1016763
18:00+6ssw71552100 0.0 1015717
21:00+6ssw71753100 0.0 1013694